Regional Weather Roundup
Issued by NWS Wakefield, VA

Home | Current Version | Previous Version | Graphics & Text | Print | Product List | Glossary On
Versions: 1 2 3 4 5 6 7 8 9 10 11 12 13 14 15 16 17 18 19 20 21 22 23 24 25 26 27 28 29 30 31 32 33 34 35 36 37 38 39 40 41 42 43 44 45 46 47 48 49 50
000
ASUS41 KAKQ 242014
RWRAKQ

REGIONAL WEATHER ROUNDUP
NATIONAL WEATHER SERVICE WAKEFIELD VA
400 PM EDT FRI APR 24 2015

Note: "fair" indicates few or no clouds below 12,000 feet with no
significant weather and/or obstructions to visibility. * = Denotes
station may not report precipitation (e.g., rain,snow,etc.),
thunder or fog.

VAZ042-051-052>054-056-242100-
NORTHERN VIRGINIA

CITY           SKY/WX    TMP DP  RH WIND       PRES   REMARKS
WASH NATIONAL  MOSUNNY   61  20  20 NW18G26   29.93F
DULLES         SUNNY     59  19  21 NW18G31   29.91F
FORT BELVOIR   SUNNY     60  17  19 NW15G28   29.92F
QUANTICO       MOSUNNY   62  15  16 NW20G28   29.93F
FREDERICKSBRG* SUNNY     63  20  19 NW16G23   29.92F
STAFFORD*      SUNNY     60  12  15 NW10G21   29.96F
WARRENTON      SUNNY     63  25  23 W7G17     29.92F
CULPEPER*      SUNNY     63  16  16 NW8       29.92F
MANASSAS*      SUNNY     61  19  20 NW22      29.92F
LEESBURG*      SUNNY     59  27  29 NW15G23   29.92F
WINCHESTER     SUNNY     59   9  13 W18       29.93F
FRONT ROYAL*   FAIR      59  19  21 W16G22    29.92S
LURAY*         FAIR      63  23  22 NW8G18    29.93F
$$

VAZ048-049-060>072-079>083-242100-
CENTRAL AND SOUTH CENTRAL VIRGINIA

CITY           SKY/WX    TMP DP  RH WIND       PRES   REMARKS
RICHMOND       MOSUNNY   64  19  17 NW14G26   29.94F
CHESTERFIELD*  FAIR      63  21  20 W9G21     29.95F
PETERSBURG*    SUNNY     65  19  17 W9        29.95F
HANOVER        SUNNY     63  22  20 NW17G23   29.95F
TAPPAHANNOCK*  SUNNY     61  10  13 W10G21    29.94F
QUINTON*       FAIR      61  22  23 NW14G21   29.94F
CHARLOTTSVILLE SUNNY     63  14  15 NW10G21   29.92F
GORDONSVILLE*  FAIR      62  18  18 NW7       29.92F
ORANGE*        SUNNY     63  19  19 W13G18    29.94F
LOUISA*        SUNNY     64  19  17 W13G22    29.91F
BUMPASS*       FAIR      61  16  17 W6        29.93F
FARMVILLE*     SUNNY     68  17  14 SW12      29.91F
CREWE*         FAIR      65  15  14 W12G18    29.94F
FORT PICKETT*  FAIR      64  19  17 W14G21    29.94F
CHASE CITY*    FAIR      65  26  23 W6        29.95F
CLARKSVILLE*   FAIR      63  28  27 W10G17    29.96F
SOUTH HILL*    SUNNY     63  25  23 W10G17    30.02F
LAWRENCEVILLE* FAIR      63  22  20 W8G16     29.95F
EMPORIA*       SUNNY     63  23  22 SW9       29.97F
$$

VAZ088>098-242100-
SOUTHEAST VIRGINIA

CITY           SKY/WX    TMP DP  RH WIND       PRES   REMARKS
NORFOLK        SUNNY     61  24  24 NW8G20    29.93F
VIRGINIA BEACH MOSUNNY   64  27  24 NW20G25   29.93F
NORFOLK NAVAL  MOSUNNY   65  30  27 NW14      29.95F
WEST POINT*    SUNNY     64   8  11 NW14G25   29.95F
SALUDA*        FAIR      58  26  29 NW14G22   29.93F
NEWPORT NEWS   SUNNY     64  24  21 W17G26    29.94F
LANGLEY AFB    SUNNY     62  26  25 W15G22    29.92F
FORT EUSTIS    SUNNY     61  30  30 NW17G26   29.92F
WILLIAMSBURG*  SUNNY     66  27  22 W16G23    29.95F
HR EXEC AP*    FAIR      64  30  27 NW8G16    29.95F
FRANKLIN*      SUNNY     63  22  20 W14G20    29.95F
WAKEFIELD      SUNNY     64  19  17 NW12G20   29.95F
$$

VAZ020-022-025-037-045-242100-
WEST CENTRAL AND SOUTHWEST VIRGINIA

CITY           SKY/WX    TMP DP  RH WIND       PRES   REMARKS
STAUNTON*      SUNNY     62  13  14 NW14      29.94F
WAYNESBORO*    FAIR      60  12  15 W9        29.92F
HOT SPRINGS VA SUNNY     51   8  17 W14G24    29.95F
LYNCHBURG      SUNNY     64  15  15 VRB7G17   29.95F
DANVILLE       SUNNY     68  23  18 W12       29.96F
SOUTH BOSTON*  FAIR      65  19  17 NW14G21   29.96F
MARTINSVILLE   SUNNY     69  20  15 NW3       29.98F
ROANOKE        PTSUNNY   63  16  16 NW15G26   29.98F
BLACKSBURG     SUNNY     58  17  20 W7        30.01F
DUBLIN*        SUNNY     63  18  17 NW5       30.00F
MARION*        SUNNY     61   9  13 NW15G21   30.03F
HILLSVILLE*    SUNNY     59  17  19 W13G21    29.99F
RICHLANDS*     FAIR      59 -30   2 NW6       30.03F
WISE*          MOSUNNY   63  12  14 CALM      30.04F
ABINGDON*      SUNNY     63  19  18 CALM      30.03F
$$

MDZ021>025-VAZ099-100-242100-
SOUTHERN MARYLAND AND THE DELMARVA PENINSULA

CITY           SKY/WX    TMP DP  RH WIND       PRES   REMARKS
PATUXENT RIVER MOSUNNY   58  19  22 NW20G30   29.92F
BAY BRIDGE APT   N/A    N/A N/A N/A NW14G20   29.91F
LEONARDTOWN    SUNNY     59  18  20 W12G21    29.93F
DOVER          SUNNY     54  22  28 W17G30    29.85F
GEORGETOWN     SUNNY     54  17  23 W17G33    29.91F
EASTON         MOSUNNY   57  27  30 NW23G35   29.95F
CAMBRIDGE      SUNNY     57  21  24 NW15G23   29.92S
SALISBURY      SUNNY     55  18  23 NW17G31   29.92F
OCEAN CITY     SUNNY     55  20  25 NW15G26   29.91F
WALLOPS ISLAND MOSUNNY   55  22  27 NW18G30   29.93F
ACCOMACK*      SUNNY     55  -9   7 NW16G25   29.94S
$$

NCZ012>017-030>032-242100-
NORTH CENTRAL AND EASTERN NORTH CAROLINA

CITY           SKY/WX    TMP DP  RH WIND       PRES   REMARKS
ROANOKE RAPIDS FAIR      63  27  25 W9G20     29.97F
RALEIGH        MOSUNNY   67  30  25 W8        29.99F
ELIZABETH CITY SUNNY     64  27  24 W18G24    29.95F
AHOSKIE*       SUNNY     62  27  26 NW3       29.96F
EDENTON*       SUNNY     64  29  26 NW12G18   29.96F
CURRITUCK*     SUNNY     62  21  21 NW10      29.95F
KILL DEVIL HLS SUNNY     53  37  54 E6        29.96S
MANTEO         SUNNY     56  40  55 E10       29.98R
CAPE HATTERAS  SUNNY     56  39  53 NE6       29.97F
TARBORO*       FAIR      66  26  21 W13G18    29.98F
GOLDSBORO      SUNNY     66  25  20 NW9       29.96F
WASHINGTON     SUNNY     64  28  25 NW8       29.98F
GREENVILLE     SUNNY     64  27  24 NW14G21   30.00F
NEW BERN       SUNNY     67  31  26 N10       29.98F
WILMINGTON     SUNNY     70  28  21 NW10      29.98F
$$

VAZ048-242100-
ELSEWHERE

CITY           SKY/WX    TMP DP  RH WIND       PRES   REMARKS
HARRISBURG PA  MOSUNNY   54  17  23 NW26G38   29.89F
BALTIMORE      MOSUNNY   58  20  22 NW20G36   29.90F
ANNAPOLIS      SUNNY     56  22  26 NW14G25   29.91F
ANDREWS AFB    SUNNY     57  19  22 NW22G32   29.91F
PHILADELPHIA   MOSUNNY   55  14  19 W23G30    29.88S
HENDERSON NC   SUNNY     64  17  17 W9G17     29.97F
GREENSBORO     SUNNY     67  22  18 W14       29.97F
ROCKY MOUNT    SUNNY     67  25  20 NW9G17    29.98F
$$

VAZ100-242100-
MARINE

STATION/POSITION TIME  TEMP    WIND        PRES    WAVE   SWELL
                       AIR SEA DIR/SP/G            HT/PER HT/PER
                 (UTC) (F)     (DEG/KT/KT) (MB)    (FT/S) (FT/S)
BRANDYWINE LGT   1900   49 52  330/ 14/ 19 1012.3F
CAPE MAY NJ      1900   51 56  310/ 20/ 29 1012.0F
LEWES DE         1900   51 52  310/ 21/ 26 1012.3F
15NM E FENWICK I 1950   49 46              1012.2F   3/13
OCEAN-CITY-INLET 1900   51 51  290/ 18/ 23 1012.4F
WACHAPREAGUE VA  1900   55 59  280/  5/ 14 1014.1F
THOMAS POINT MD  2000   54 53  310/ 18/ 22 1013.2F
GOOSES REEF MD   2000   54 54  320/ 17/ 25   N/A     2/ 2
COVE POINT MD    1900   52     320/ 15/ 21 1014.4F
SOLOMONS ISLAND  1900      57                N/A
BISHOPS HEAD MD  1900   53 61  310/ 15/ 19 1013.6F
PINEY POINT MD   1900          330/ 25/ 27   N/A
CAMBRIDGE MD     1900   53 58  300/ 10/ 19 1013.5F
LEWISETTA VA     1900   54 58              1013.8F
RAPPAHANNOCK LGT 1900          300/ 15/ 17 1014.6F
YORK RVR RNG VA  1900   56     300/ 18/ 21 1013.5F
YORKTOWN VA      1900   57 61  320/ 18/ 21 1013.8F
JAMESTOWN VA     2000   59 65  310/ 16/ 19 1012.8F
DOMINION TERM VA 1900   56     340/ 15/ 20 1014.5F
KIPTOPEKE VA     1900      63  350/ 10/ 17   N/A
CHES BAY BRIDGE  1900   55 59  280/ 13/ 17 1014.0F
CAPE HENRY VA    1900   54     320/ 11/ 13 1013.1F
CHESAPEAKE LGHT  1900   52     320/ 13/ 14 1015.2F
WILLOUBY STN VA  1900   56     300/ 20/ 22 1014.9F
S CRANEY ISL VA  1900          340/ 12/ 16 1014.4F
CAPE HENRY BUOY  1928      53                N/A     4/ 6   2/14
1ST LANDING BUOY 2000                      1018.2    2/ 3
OFFSHORE WE BUOY 1911      51                N/A     5/ 6   3/ 6
64NM E OF VA BCH 1950   50 60  320/ 16/ 17 1014.0F   6/ 7   3/13
DUCK PIER NC     1900   50 55   50/  6/  7 1014.1F
44056 DUCK FRF   1911      54                N/A     4/ 6   2/12
OREGON INLET NC  1900   51 60   10/  9/ 14 1015.1F
HATTERAS NC      1900   55 65   20/  6/  8 1014.9F
DIAMOND SHLS NC  1950   55 74  350/  6/ 10 1015.2F   4/ 6   3/ 6
CAPE LOOKOUT NC  2000   62     240/  8/ 13 1014.7F
$$


USA.gov is the U.S. government's official web portal to all federal, state and local government web resources and services.